Location: ??????
(33.3472°N, 35.4764°E)
Time: 04:41:13
(UTC+00:00)

Cosmos 1802 Rocket - Pass Details

Date: 21 August 2019
Orbit: 954 x 1012 km, 82.9° (Epoch: 21 September)

Event Time Altitude Azimuth Distance (km) Brightness Sun altitude
Rises 00:08:48 0° 354° (N) 3,639 7.5 -32.4°
Reaches altitude 10° 00:11:18 10° 356° (N) 2,693 6.7 -32.1°
Enters shadow 00:17:01 77° 25° (NNE) 992 4.0 -31.2°
